Miscellaneous Local Product
Issued by NWS Hastings, NE

Home | Current Version | Previous Version | Text Only | Print | Product List | Glossary Off
Versions: 1 2 3 4 5 6 7 8 9 10 11 12 13 14 15 16 17 18 19 20 21 22 23 24 25 26 27 28 29 30 31 32 33 34 35 36 37 38 39 40 41 42 43 44 45 46 47 48 49 50

000
AXUS43 KGID 270702
MISGRI

GID CWA HOURLY WEATHER ROUNDUP
NATIONAL WEATHER SERVICE HASTINGS NE
200 AM CDT WED MAY 27 2015

NOTE: "FAIR" INDICATES FEW OR NO CLOUDS BELOW 12,000 FEET WITH NO
SIGNIFICANT WEATHER AND/OR OBSTRUCTIONS TO VISIBILITY.

...SOUTH CENTRAL NEBRASKA...

CITY           SKY/WX    TMP DP  RH WIND       PRES   REMARKS
GRAND ISLAND   CLEAR     53  47  79 W8        30.01R
HASTINGS       CLEAR     55  48  77 SW5       30.02R
KEARNEY        CLEAR     54  46  76 CALM      30.03R
ORD            CLEAR     53  47  79 NW6       29.99R
YORK           CLEAR     54  50  87 W6        29.99S
AURORA         CLEAR     52  49  89 SW7       30.00R
LEXINGTON      PTCLDY    50  48  93 NE3       30.04S
HOLDREGE       CLEAR     55  48  78 SW3       30.04R
HEBRON         CLEAR     53  49  88 W3        30.00S

...NEBRASKA PANHANDLE...

CITY           SKY/WX    TMP DP  RH WIND       PRES   REMARKS
CHADRON        CLOUDY    59  51  75 S9        30.00R
ALLIANCE       CLOUDY    52  49  89 SE7       30.03S
SCOTTSBLUFF    CLOUDY    57  53  86 N5        30.05R
SIDNEY         CLOUDY    52  49  89 S8        30.06F

...WESTERN AND NORTH CENTRAL NEBRASKA...

CITY           SKY/WX    TMP DP  RH WIND       PRES   REMARKS
VALENTINE      CLEAR     50  46  86 W6        30.01S
AINSWORTH      CLEAR     55  48  78 W5        30.01S
ONEILL         CLEAR     56  51  84 W6        29.98S
BROKEN BOW     PTCLDY    53  47  79 CALM      30.02R
IMPERIAL       CLEAR     52  47  83 S5        30.07R
NORTH PLATTE   MOCLDY    51  48  89 CALM      30.05S
MCCOOK         CLEAR     54  47  77 CALM      30.05R

...EASTERN NEBRASKA...

CITY           SKY/WX    TMP DP  RH WIND       PRES   REMARKS
NORFOLK        CLEAR     54  51  90 W6        29.95S
SO SIOUX CITY  PTCLDY    54  51  90 CALM      29.92S
TEKAMAH        CLEAR     55  53  93 SW7       29.93S
COLUMBUS         N/A    N/A N/A N/A MISG        N/A
ALBION         CLEAR     56  48  75 NW5       29.97F
OMAHA EPPLEY   CLEAR     55  54  96 S3        29.94S
OFFUTT AFB     CLEAR     54  52  94 W5        29.94R
MILLARD        CLEAR     55  54  95 CALM      29.95R
LINCOLN        CLEAR     59  51  75 NW3       29.97S
NEBRASKA CITY  CLEAR     58  55  89 W8        29.96R
BEATRICE       CLEAR     55  52  90 W3        29.97F
FALLS CITY     CLEAR     58  54  86 W6        29.95R

...NORTHERN KANSAS...

CITY           SKY/WX    TMP DP  RH WIND       PRES   REMARKS
GOODLAND       PTCLDY    54  51  90 SE8       30.07S
HILL CITY      CLEAR     51  49  92 NW5       30.05S
NORTON         SUNNY     52  46  82 SW5       30.05R
PHILLIPSBURG   CLEAR     54  54 100 W6        30.04S
SMITH CENTER   CLEAR     52  48  87 N3        30.03S
HAYS           CLEAR     55  46  71 CALM      30.04S
RUSSELL        CLEAR     58  52  80 SE5       30.02R
CONCORDIA      CLEAR     58  52  80 W6        30.01R
SALINA         CLOUDY    62  58  86 S5        30.02R
TOPEKA         PTCLDY    61  59  93 CALM      29.97F



USA.gov is the U.S. government's official web portal to all federal, state and local government web resources and services.